Location: Meinert
(37.9441°N, 122.0275°W)
Time: 18:48:28
(UTC+00:00)

Cosmos 1066 Rocket - Pass Details

Date: 18 April 2024
Orbit: 798 x 893 km, 81.2° (Epoch: 23 May)

Event Time Altitude Azimuth Distance (km) Brightness Sun altitude
Exits shadow 12:15:18 17° 216° (SW) 1,942 5.6 -14.2°
Maximum altitude 12:19:12 46° 283° (WNW) 1,089 4.5 -13.5°
Drops below altitude 10° 12:24:28 10° 356° (N) 2,436 6.9 -12.6°
Sets 12:27:01 0° 3° (N) 3,388 7.7 -12.1°
